JTD7AJ LGRP-EFHK

Flight info

Callsign JTD7AJ
Flight time N/A
Altitude 34000
Route VANES UM601 ADESO UN133 KOROS DCT ATFIR DCT LOMOS DCT KENIN DCT TOXAR/N0466F350 DCT BOKSU DCT INBOV DCT GUNTA DCT SOKVA DCT ANAMA DCT KEMET Q11 INTOR
Aircraft B738/M-SDE2E3FGHIRWXY/LB1

Departure

Time N/A
Airport Rhodes International Airport "Diagoras" (LGRP)

Arrival

Time 2026-04-26 18:35
Airport Helsinki Vantaa Airport (EFHK)
Time Latitude Longitude Altitude Speed Heading
2026-04-26 16:55 49.93570 22.14085 36193 ft 410 kts 356°
2026-04-26 16:55 49.99200 22.14877 36181 ft 408 kts 356°
2026-04-26 16:56 50.07647 22.16068 36185 ft 405 kts 356°
2026-04-26 16:57 50.13254 22.16859 36182 ft 404 kts 356°
2026-04-26 16:57 50.21599 22.18041 36183 ft 403 kts 356°
2026-04-26 16:58 50.25328 22.18571 36177 ft 402 kts 356°
2026-04-26 16:59 50.35499 22.20020 36156 ft 400 kts 356°
2026-04-26 17:00 50.46606 22.21607 36153 ft 401 kts 356°
2026-04-26 17:00 50.54920 22.22802 36159 ft 402 kts 356°
2026-04-26 17:01 50.60499 22.23606 36156 ft 403 kts 356°
2026-04-26 17:01 50.66085 22.24413 36163 ft 403 kts 356°
2026-04-26 17:02 50.71629 22.25218 36146 ft 402 kts 356°
2026-04-26 17:02 50.77191 22.26027 36148 ft 401 kts 356°
2026-04-26 17:03 50.82746 22.26835 36161 ft 400 kts 356°
2026-04-26 17:03 50.88294 22.27643 36169 ft 401 kts 356°
2026-04-26 17:04 50.93849 22.28455 36161 ft 401 kts 356°
2026-04-26 17:04 50.99357 22.29263 36161 ft 400 kts 356°
2026-04-26 17:05 51.04900 22.30078 36155 ft 400 kts 356°
2026-04-26 17:05 51.10435 22.30893 36202 ft 400 kts 357°
2026-04-26 17:06 51.15988 22.31979 36173 ft 403 kts 359°
2026-04-26 17:06 51.21510 22.33250 36164 ft 404 kts 359°
2026-04-26 17:07 51.27072 22.34517 36162 ft 404 kts 359°
2026-04-26 17:07 51.32639 22.35758 36157 ft 404 kts 359°
2026-04-26 17:08 51.38202 22.36986 36159 ft 404 kts 359°
2026-04-26 17:08 51.43728 22.38204 36160 ft 404 kts 359°
2026-04-26 17:09 51.48354 22.39225 36162 ft 404 kts 359°
2026-04-26 17:09 51.54856 22.40664 36164 ft 404 kts 359°
2026-04-26 17:10 51.60420 22.41899 36169 ft 404 kts 359°
2026-04-26 17:10 51.65979 22.43137 36165 ft 403 kts 359°
2026-04-26 17:11 51.71489 22.44367 36150 ft 402 kts 359°
2026-04-26 17:11 51.77022 22.45605 36157 ft 401 kts 359°
2026-04-26 17:12 51.85307 22.47463 36181 ft 401 kts 360°
2026-04-26 17:13 51.93542 22.49319 36154 ft 399 kts 359°
2026-04-26 17:14 52.01806 22.51184 36211 ft 402 kts 360°
2026-04-26 17:14 52.07337 22.52438 36673 ft 400 kts
2026-04-26 17:14 52.10088 22.53064 36903 ft 399 kts
2026-04-26 17:15 52.15599 22.54318 37134 ft 401 kts
2026-04-26 17:15 52.18329 22.54939 37159 ft 403 kts
2026-04-26 17:16 52.23884 22.56207 37162 ft 403 kts
2026-04-26 17:16 52.29427 22.57478 37150 ft 402 kts
2026-04-26 17:17 52.34967 22.58750 37161 ft 403 kts
2026-04-26 17:17 52.40507 22.60026 37164 ft 402 kts
2026-04-26 17:18 52.46003 22.61295 37159 ft 401 kts
2026-04-26 17:18 52.51535 22.62575 37154 ft 401 kts
2026-04-26 17:19 52.59823 22.64497 37153 ft 402 kts
2026-04-26 17:19 52.65354 22.65785 37148 ft 401 kts
2026-04-26 17:20 52.69014 22.66639 37147 ft 401 kts
2026-04-26 17:20 52.76366 22.68360 37145 ft 400 kts
2026-04-26 17:21 52.81881 22.69654 37188 ft 400 kts
2026-04-26 17:21 52.87397 22.70950 37162 ft 401 kts
2026-04-26 17:22 52.92884 22.72244 37146 ft 401 kts
2026-04-26 17:22 52.98405 22.73549 37139 ft 401 kts
2026-04-26 17:23 53.03932 22.74859 37143 ft 401 kts
2026-04-26 17:23 53.09459 22.76172 37154 ft 403 kts
2026-04-26 17:24 53.14070 22.77270 37152 ft 403 kts
2026-04-26 17:24 53.20510 22.78809 37149 ft 402 kts
2026-04-26 17:25 53.26056 22.80138 37141 ft 402 kts
2026-04-26 17:25 53.31599 22.81469 37189 ft 402 kts
2026-04-26 17:26 53.36220 22.82580 37144 ft 404 kts
2026-04-26 17:26 53.41788 22.83923 37130 ft 405 kts
2026-04-26 17:27 53.48279 22.85494 37137 ft 406 kts
2026-04-26 17:27 53.53871 22.86851 37133 ft 407 kts
2026-04-26 17:28 53.58531 22.87985 37156 ft 408 kts
2026-04-26 17:28 53.64151 22.89356 37121 ft 408 kts
2026-04-26 17:29 53.68824 22.90499 37122 ft 408 kts
2026-04-26 17:29 53.76308 22.92334 37120 ft 408 kts
2026-04-26 17:30 53.81020 22.93493 37125 ft 408 kts
2026-04-26 17:30 53.86603 22.94870 37126 ft 408 kts
2026-04-26 17:31 53.92228 22.96261 37115 ft 408 kts
2026-04-26 17:31 53.97849 22.97654 37115 ft 408 kts
2026-04-26 17:32 54.03468 22.99051 37112 ft 408 kts
2026-04-26 17:32 54.09047 23.00441 37145 ft 408 kts
2026-04-26 17:33 54.14674 23.01847 37128 ft 409 kts
2026-04-26 17:34 54.23139 23.03970 37117 ft 410 kts
2026-04-26 17:34 54.28753 23.05383 37114 ft 411 kts
2026-04-26 17:35 54.34412 23.06907 37105 ft 412 kts
2026-04-26 17:35 54.40072 23.08646 37105 ft 414 kts
2026-04-26 17:36 54.45748 23.10408 37088 ft 415 kts
2026-04-26 17:36 54.51429 23.12155 37061 ft 415 kts
2026-04-26 17:37 54.57074 23.13884 37084 ft 414 kts
2026-04-26 17:37 54.62742 23.15620 37102 ft 414 kts
2026-04-26 17:38 54.71245 23.18233 37078 ft 414 kts
2026-04-26 17:38 54.76912 23.19981 37075 ft 413 kts
2026-04-26 17:39 54.82530 23.21719 37065 ft 413 kts
2026-04-26 17:39 54.88181 23.23472 37097 ft 413 kts
2026-04-26 17:40 54.92886 23.24935 37081 ft 413 kts
2026-04-26 17:40 54.99501 23.26998 37068 ft 413 kts
2026-04-26 17:41 55.05120 23.28757 37060 ft 413 kts
2026-04-26 17:41 55.10781 23.30533 37059 ft 413 kts
2026-04-26 17:42 55.16441 23.32314 37043 ft 414 kts
2026-04-26 17:42 55.22113 23.34105 37047 ft 414 kts
2026-04-26 17:43 55.27747 23.35888 37046 ft 414 kts
2026-04-26 17:43 55.33417 23.37689 37057 ft 414 kts
2026-04-26 17:44 55.39092 23.39496 37049 ft 414 kts
2026-04-26 17:44 55.44774 23.41318 37050 ft 416 kts
2026-04-26 17:45 55.50454 23.43345 36994 ft 417 kts
2026-04-26 17:45 55.56085 23.45430 37017 ft 416 kts
2026-04-26 17:46 55.61753 23.47519 37031 ft 416 kts
2026-04-26 17:46 55.67427 23.49600 37047 ft 417 kts
2026-04-26 17:47 55.72153 23.51333 37045 ft 418 kts
2026-04-26 17:47 55.78778 23.53770 37025 ft 418 kts
2026-04-26 17:48 55.84482 23.55875 37029 ft 419 kts
2026-04-26 17:48 55.90190 23.57988 37019 ft 419 kts
2026-04-26 17:49 55.95908 23.60111 37021 ft 420 kts
2026-04-26 17:49 56.01593 23.62229 37014 ft 420 kts
2026-04-26 17:50 56.07316 23.64367 37014 ft 420 kts
2026-04-26 17:50 56.13034 23.66509 36999 ft 420 kts
2026-04-26 17:51 56.18748 23.68657 37025 ft 420 kts
2026-04-26 17:51 56.24425 23.70797 37016 ft 420 kts
2026-04-26 17:52 56.30139 23.72958 36999 ft 419 kts
2026-04-26 17:52 56.35843 23.75121 37001 ft 419 kts
2026-04-26 17:53 56.41552 23.77186 36994 ft 418 kts
2026-04-26 17:54 56.50080 23.80059 36990 ft 417 kts
2026-04-26 17:54 56.55790 23.82000 36990 ft 417 kts
2026-04-26 17:55 56.61494 23.83960 36979 ft 417 kts
2026-04-26 17:55 56.67188 23.85927 36989 ft 417 kts
2026-04-26 17:56 56.72844 23.87887 37041 ft 417 kts
2026-04-26 17:57 56.84263 23.91863 36994 ft 418 kts
2026-04-26 17:57 56.89983 23.93864 36995 ft 419 kts
2026-04-26 17:58 57.01393 23.97875 36991 ft 419 kts
2026-04-26 17:59 57.09999 24.00917 36968 ft 420 kts
2026-04-26 17:59 57.15741 24.02954 36959 ft 420 kts
2026-04-26 18:00 57.21482 24.04999 36957 ft 420 kts
2026-04-26 18:00 57.27185 24.07035 36955 ft 420 kts
2026-04-26 18:01 57.32931 24.09092 36956 ft 421 kts
2026-04-26 18:01 57.38690 24.11161 36948 ft 422 kts
2026-04-26 18:02 57.43486 24.12890 36947 ft 422 kts
2026-04-26 18:02 57.50197 24.15316 36945 ft 423 kts
2026-04-26 18:03 57.55980 24.17415 36981 ft 424 kts
2026-04-26 18:03 57.61761 24.19519 36946 ft 425 kts
2026-04-26 18:04 57.67576 24.21643 36938 ft 426 kts
2026-04-26 18:05 57.76271 24.24832 36930 ft 427 kts
2026-04-26 18:05 57.82096 24.26977 36942 ft 427 kts
2026-04-26 18:06 57.87928 24.29131 36950 ft 428 kts
2026-04-26 18:06 57.93774 24.31237 36936 ft 428 kts
2026-04-26 18:07 57.99599 24.33216 36926 ft 428 kts
2026-04-26 18:07 58.05467 24.35214 36927 ft 429 kts
2026-04-26 18:08 58.11338 24.37235 36915 ft 429 kts
2026-04-26 18:08 58.17211 24.39270 36913 ft 430 kts
2026-04-26 18:09 58.23098 24.41318 36917 ft 430 kts
2026-04-26 18:09 58.28948 24.43360 36902 ft 431 kts
2026-04-26 18:10 58.34848 24.45426 36903 ft 431 kts
2026-04-26 18:10 58.40751 24.47499 36939 ft 432 kts
2026-04-26 18:11 58.46664 24.49582 36923 ft 433 kts
2026-04-26 18:11 58.52548 24.51662 36911 ft 433 kts
2026-04-26 18:12 58.58482 24.53768 36903 ft 434 kts
2026-04-26 18:12 58.64423 24.55883 36872 ft 434 kts
2026-04-26 18:13 58.70353 24.58001 36898 ft 434 kts
2026-04-26 18:13 58.76323 24.60140 36329 ft 439 kts
2026-04-26 18:13 58.78298 24.60850 36034 ft 434 kts
2026-04-26 18:14 58.82236 24.62270 35199 ft 434 kts
2026-04-26 18:14 58.85190 24.63337 34549 ft 433 kts
2026-04-26 18:14 58.88153 24.64407 33973 ft 431 kts
2026-04-26 18:14 58.91066 24.65464 33233 ft 423 kts
2026-04-26 18:15 58.93968 24.66516 32146 ft 423 kts
2026-04-26 18:15 58.96839 24.67558 31605 ft 415 kts
2026-04-26 18:15 58.99657 24.68582 30964 ft 414 kts
2026-04-26 18:15 59.02478 24.69604 30326 ft 413 kts
2026-04-26 18:16 59.05310 24.70631 29486 ft 414 kts
2026-04-26 18:16 59.10933 24.72677 27768 ft 413 kts
2026-04-26 18:16 59.13754 24.73709 26913 ft 413 kts
2026-04-26 18:17 59.16580 24.74743 26034 ft 413 kts
2026-04-26 18:17 59.19398 24.75778 25370 ft 409 kts
2026-04-26 18:17 59.22183 24.76803 24715 ft 405 kts
2026-04-26 18:17 59.24935 24.77817 24108 ft 401 kts
2026-04-26 18:18 59.27660 24.78823 23507 ft 397 kts
2026-04-26 18:18 59.30326 24.79807 22800 ft 393 kts
2026-04-26 18:18 59.32997 24.80794 22163 ft 388 kts
2026-04-26 18:18 59.35629 24.81769 21569 ft 383 kts
2026-04-26 18:19 59.38236 24.82736 20976 ft 380 kts
2026-04-26 18:19 59.40813 24.83767 20368 ft 377 kts 12°
2026-04-26 18:19 59.43291 24.85477 19796 ft 380 kts 20°
2026-04-26 18:19 59.45746 24.87583 19201 ft 391 kts 20°
2026-04-26 18:20 59.48263 24.89715 18587 ft 394 kts 20°
2026-04-26 18:20 59.50741 24.91789 17955 ft 390 kts 20°
2026-04-26 18:20 59.53228 24.93859 17308 ft 385 kts 20°
2026-04-26 18:20 59.54889 24.95241 16877 ft 382 kts 21°
2026-04-26 18:21 59.58108 24.97925 16100 ft 376 kts 21°
2026-04-26 18:21 59.60503 24.99924 15526 ft 372 kts 20°
2026-04-26 18:21 59.62873 25.01907 14941 ft 368 kts 20°
2026-04-26 18:21 59.65216 25.03870 14377 ft 364 kts 20°
2026-04-26 18:22 59.67535 25.05816 13809 ft 361 kts 20°
2026-04-26 18:22 59.69835 25.07748 13204 ft 357 kts 20°
2026-04-26 18:22 59.72104 25.09659 12640 ft 352 kts 20°
2026-04-26 18:22 59.74299 25.11510 12429 ft 339 kts 20°
2026-04-26 18:23 59.76433 25.13314 12242 ft 328 kts 20°
2026-04-26 18:23 59.78503 25.15063 12096 ft 319 kts 20°
2026-04-26 18:23 59.80520 25.16769 11971 ft 311 kts 20°
2026-04-26 18:23 59.82517 25.18460 11876 ft 311 kts 20°
2026-04-26 18:24 59.84540 25.19890 11607 ft 310 kts
2026-04-26 18:24 59.86627 25.19826 11536 ft 293 kts 349°
2026-04-26 18:24 59.88530 25.18626 11090 ft 286 kts 333°
2026-04-26 18:24 59.90170 25.16452 10407 ft 287 kts 326°
2026-04-26 18:25 59.91738 25.14031 9825 ft 284 kts 324°
2026-04-26 18:25 59.93281 25.11598 9164 ft 281 kts 324°
2026-04-26 18:25 59.94785 25.09226 8551 ft 278 kts 324°
2026-04-26 18:25 59.96289 25.06862 8059 ft 275 kts 324°
2026-04-26 18:26 59.97803 25.04492 7934 ft 273 kts 324°
2026-04-26 18:26 59.99267 25.02202 7808 ft 260 kts 324°
2026-04-26 18:26 60.00647 25.00043 7674 ft 244 kts 324°
2026-04-26 18:26 60.01963 24.97986 7304 ft 238 kts 324°
2026-04-26 18:27 60.03263 24.95959 6837 ft 236 kts 324°
2026-04-26 18:27 60.04553 24.93947 6388 ft 234 kts 324°
2026-04-26 18:27 60.05831 24.91950 5921 ft 232 kts 324°
2026-04-26 18:27 60.07088 24.89985 5421 ft 232 kts 324°
2026-04-26 18:28 60.08360 24.87997 4942 ft 231 kts 324°
2026-04-26 18:28 60.09607 24.86042 4836 ft 227 kts 324°
2026-04-26 18:28 60.10883 24.84043 4375 ft 233 kts 324°
2026-04-26 18:28 60.12165 24.82029 4082 ft 232 kts 324°
2026-04-26 18:29 60.13429 24.80042 3853 ft 229 kts 324°
2026-04-26 18:29 60.14616 24.77996 3668 ft 228 kts 320°
2026-04-26 18:29 60.15781 24.75840 3528 ft 228 kts 320°
2026-04-26 18:29 60.16931 24.73707 3365 ft 222 kts 320°
2026-04-26 18:30 60.18044 24.71647 3275 ft 214 kts 320°
2026-04-26 18:30 60.19169 24.69791 3201 ft 206 kts 335°
2026-04-26 18:30 60.20553 24.69506 3120 ft 209 kts 14°
2026-04-26 18:30 60.21862 24.70939 2896 ft 219 kts 26°
2026-04-26 18:31 60.23111 24.72683 2573 ft 216 kts 34°
2026-04-26 18:31 60.24173 24.74692 2299 ft 202 kts 40°
2026-04-26 18:31 60.25082 24.76690 2030 ft 186 kts 41°
2026-04-26 18:31 60.25902 24.78511 1769 ft 171 kts 41°
2026-04-26 18:32 60.26666 24.80201 1541 ft 156 kts 39°
2026-04-26 18:32 60.27368 24.81746 1370 ft 142 kts 39°
2026-04-26 18:32 60.28024 24.83188 1137 ft 140 kts 40°
2026-04-26 18:32 60.28674 24.84621 939 ft 137 kts 41°
2026-04-26 18:33 60.29330 24.86063 773 ft 143 kts 42°
2026-04-26 18:33 60.30007 24.87564 578 ft 146 kts 42°
2026-04-26 18:33 60.30693 24.89077 377 ft 146 kts 41°
2026-04-26 18:33 60.31372 24.90572 165 ft 143 kts 41°
2026-04-26 18:34 60.31966 24.91863 149 ft 102 kts 47°
2026-04-26 18:34 60.32350 24.92706 169 ft 67 kts 46°
2026-04-26 18:34 60.32649 24.93356 179 ft 58 kts 47°
2026-04-26 18:34 60.32909 24.93911 182 ft 51 kts 49°
2026-04-26 18:35 60.33049 24.94333 188 ft 25 kts 85°
2026-04-26 18:35 60.33042 24.94630 182 ft 21 kts 105°
2026-04-26 18:35 60.32942 24.94822 176 ft 20 kts 139°
2026-04-26 18:35 60.32820 24.94954 175 ft 20 kts 167°
2026-04-26 18:36 60.32688 24.95039 178 ft 20 kts 158°
2026-04-26 18:36 60.32562 24.95129 179 ft 19 kts 161°
2026-04-26 18:36 60.32438 24.95209 178 ft 18 kts 163°
2026-04-26 18:36 60.32322 24.95297 176 ft 18 kts 153°
2026-04-26 18:37 60.32234 24.95463 174 ft 17 kts 137°
2026-04-26 18:37 60.32146 24.95626 172 ft 18 kts 137°
2026-04-26 18:37 60.32070 24.95770 173 ft 13 kts 137°
2026-04-26 18:37 60.31999 24.95899 172 ft 13 kts 136°
2026-04-26 18:38 60.31956 24.95978 170 ft 10 kts 138°
2026-04-26 18:38 60.31879 24.96116 166 ft 19 kts 137°
2026-04-26 18:38 60.31866 24.96345 166 ft 13 kts 54°
2026-04-26 18:38 60.31877 24.96386 166 ft 2 kts 97°
2026-04-26 18:39 60.31863 24.96424 166 ft 5 kts 137°
2026-04-26 18:39 60.31844 24.96459 166 ft 1 kts 137°
2026-04-26 18:39 60.31842 24.96464 166 ft 1 kts 137°
2026-04-26 18:39 60.31839 24.96469 166 ft 1 kts 137°
2026-04-26 18:40 60.31838 24.96470 166 ft 0 kts 137°
2026-04-26 18:41 60.31839 24.96470 166 ft 0 kts 137°